Regional Weather Roundup
Issued by NWS

Home | Current Version | Previous Version | Graphics & Text | Print | Product List | Glossary On
Versions: 1 2 3 4 5 6 7 8 9 10 11 12 13 14 15 16 17 18 19 20 21 22 23 24 25 26 27 28 29 30 31 32 33 34 35 36 37 38 39 40 41 42 43 44 45 46 47 48 49 50
000
ASUS43 KBIS 230510
RWRND

NORTH DAKOTA REGIONAL WEATHER ROUNDUP
NATIONAL WEATHER SERVICE BISMARCK ND
1100 PM CST MON JAN 22 2018

NOTE: "FAIR" INDICATES FEW OR NO CLOUDS BELOW 12,000 FEET WITH NO
SIGNIFICANT WEATHER AND/OR OBSTRUCTIONS TO VISIBILITY.


NDZ001>003-009>011-017-230600-
NORTHWEST NORTH DAKOTA

CITY           SKY/WX    TMP DP  RH WIND       PRES   REMARKS
WILLISTON      PTCLDY    23  17  78 S6        29.98S WCI  16
MINOT          CLOUDY    17  14  88 SE9       29.98F WCI   6
MINOT AFB      CLOUDY    16  14  90 S6        29.97F FOG     WCI   8
$$

NDZ018>021-031>035-040>046-230600-
SOUTHWEST NORTH DAKOTA

CITY           SKY/WX    TMP DP  RH WIND       PRES   REMARKS
BISMARCK       FOG       23  20  88 S6        30.04S VSB 1/2 WCI  16
DICKINSON      CLOUDY    26  20  77 W12       29.97R WCI  16
GARRISON         N/A     17  15  92 S6        29.99R WCI   9
HETTINGER ARPT CLOUDY    22  17  81 W8        30.01S WCI  12
$$

NDZ004>008-012>016-024-026-027-054-230600-
NORTHEAST NORTH DAKOTA

CITY           SKY/WX    TMP DP  RH WIND       PRES   REMARKS
GRAND FORKS    CLOUDY    24  19  81 NE7       30.07S WCI  16
GRND FRKS AFB  CLOUDY    23  17  78 CALM      30.07S
DEVILS LAKE    CLOUDY    19  18  95 S9        30.04S WCI   8
$$

NDZ022-023-025-028>030-036>039-047>053-230600-
SOUTHEAST NORTH DAKOTA

CITY           SKY/WX    TMP DP  RH WIND       PRES   REMARKS
FARGO          CLOUDY    25  20  81 N12       30.03S WCI  14
JAMESTOWN      CLOUDY    20  19  96 NW6       30.03S WCI  12
$$





USA.gov is the U.S. government's official web portal to all federal, state and local government web resources and services.